This demonstration page uses our WeatherBlox Daily Observations layout. Learn more.

Hourly Observations for June 3, 2020

Temp ( °F °C ) Dew Point ( °F °C ) Humidity (%) Winds ( mph kmh ) Pressure ( in mb ) Visibility ( mi km ) Precip ( " mm )
12:15 am 00:15 Clear 68 20 59 15 73 73 Calm 29.84 1011 10 16.0934 0 0
12:35 am 00:35 Clear 68 20 59 15 73 73 SW 5 7 29.83 1010 10 16.0934 0 0
12:55 am 00:55 Clear 68 20 59 15 73 73 SSW 3 6 29.83 1010 10 16.0934 0 0
1:15 am 01:15 Clear 68 20 59 15 73 73 SSW 5 7 29.83 1010 10 16.0934 0 0
1:35 am 01:35 Clear 68 20 59 15 73 73 SSW 6 9 29.83 1010 10 16.0934 0 0
1:55 am 01:55 Clear 64 18 59 15 83 83 Calm 29.82 1010 10 16.0934 0 0
2:15 am 02:15 Clear 64 18 59 15 83 83 SSW 6 9 29.81 1010 10 16.0934 0 0
2:35 am 02:35 Clear 68 20 59 15 73 73 Calm 29.82 1010 10 16.0934 0 0
2:55 am 02:55 Clear 68 20 59 15 73 73 W 6 9 29.82 1010 10 16.0934 0 0
3:15 am 03:15 Clear 72 22 59 15 65 65 W 8 13 29.81 1009 10 16.0934 0 0
3:35 am 03:35 Clear 73 23 59 15 61 61 WSW 8 13 29.81 1009 10 16.0934 0 0
3:55 am 03:55 Clear 73 23 59 15 61 61 W 10 17 29.82 1010 10 16.0934 0 0
4:15 am 04:15 Clear 73 23 59 15 61 61 SW 6 9 29.8 1009 10 16.0934 0 0
4:35 am 04:35 Clear 72 22 59 15 65 65 SW 6 9 29.8 1009 10 16.0934 0 0
4:55 am 04:55 Clear 72 22 59 15 65 65 SW 8 13 29.79 1009 10 16.0934 0 0
5:15 am 05:15 Clear 72 22 59 15 65 65 SSW 6 9 29.8 1009 10 16.0934 0 0
5:35 am 05:35 Clear 72 22 61 16 69 69 SW 8 13 29.8 1009 10 16.0934 0 0
5:55 am 05:55 Sunny 72 22 61 16 69 69 SSW 6 9 29.8 1009 10 16.0934 0 0
6:15 am 06:15 Sunny 72 22 61 16 69 69 S 3 6 29.8 1009 10 16.0934 0 0
6:35 am 06:35 Sunny 72 22 61 16 69 69 WSW 6 9 29.81 1009 10 16.0934 0 0
6:55 am 06:55 Sunny 75 24 61 16 61 61 W 7 11 29.81 1009 10 16.0934 0 0
7:15 am 07:15 Sunny 77 25 61 16 57 57 W 7 11 29.79 1009 10 16.0934 0 0
7:35 am 07:35 Sunny 79 26 61 16 54 54 WSW 7 11 29.79 1009 10 16.0934 0 0
7:55 am 07:55 Sunny 79 26 61 16 54 54 W 8 13 29.78 1009 10 16.0934 0 0
8:15 am 08:15 Sunny 79 26 61 16 54 54 W 9 15 29.78 1009 10 16.0934 0 0
8:35 am 08:35 Sunny 81 27 61 16 51 51 W 9 15 29.78 1009 10 16.0934 0 0
8:55 am 08:55 Sunny 81 27 61 16 51 51 WSW 7 11 29.77 1008 10 16.0934 0 0
9:15 am 09:15 Sunny 82 28 63 17 51 51 W 12 19 29.76 1008 10 16.0934 0 0
9:35 am 09:35 Sunny 82 28 63 17 51 51 W 15 24 29.76 1008 10 16.0934 0 0
9:55 am 09:55 Sunny 84 29 63 17 48 48 W 17 28 29.75 1007 10 16.0934 0 0
10:15 am 10:15 Sunny 84 29 63 17 48 48 W 8 13 29.74 1007 10 16.0934 0 0
10:35 am 10:35 Sunny 86 30 64 18 49 49 W 10 17 29.74 1007 10 16.0934 0 0
10:55 am 10:55 Sunny 86 30 64 18 49 49 WNW 12 19 29.74 1007 10 16.0934 0 0
11:15 am 11:15 Sunny 88 31 64 18 46 46 W 7 11 29.74 1007 10 16.0934 0 0
11:35 am 11:35 Sunny 86 30 64 18 49 49 W 7 11 29.75 1007 10 16.0934 0 0
11:55 am 11:55 Sunny 86 30 64 18 49 49 WNW 9 15 29.75 1007 10 16.0934 0 0
12:15 pm 12:15 Sunny 88 31 66 19 49 49 W 10 17 29.74 1007 10 16.0934 0 0
12:35 pm 12:35 Sunny 88 31 66 19 49 49 WSW 7 11 29.73 1007 10 16.0934 0 0
12:55 pm 12:55 Sunny 90 32 66 19 46 46 WNW 12 19 29.73 1007 10 16.0934 0 0
1:15 pm 13:15 Sunny 90 32 64 18 43 43 NW 20 31 29.72 1006 10 16.0934 0 0
1:35 pm 13:35 Sunny 91 33 63 17 38 38 WNW 15 24 29.71 1006 10 16.0934 0 0
1:55 pm 13:55 Sunny 91 33 64 18 41 41 WNW 15 24 29.71 1006 10 16.0934 0 0
2:15 pm 14:15 Sunny 91 33 64 18 41 41 WNW 12 19 29.7 1006 10 16.0934 0 0
2:35 pm 14:35 Sunny 91 33 64 18 41 41 WNW 12 19 29.7 1006 10 16.0934 0 0
2:55 pm 14:55 Sunny 91 33 64 18 41 41 NW 12 19 29.7 1006 10 16.0934 0 0
3:15 pm 15:15 Sunny 91 33 63 17 38 38 NNW 16 26 29.69 1006 10 16.0934 0 0
3:35 pm 15:35 Sunny 91 33 63 17 38 38 WNW 15 24 29.69 1006 10 16.0934 0 0
3:55 pm 15:55 Sunny 93 34 63 17 36 36 NW 14 22 29.69 1006 10 16.0934 0 0
4:15 pm 16:15 Sunny 91 33 63 17 38 38 WNW 13 20 29.68 1005 10 16.0934 0 0
4:35 pm 16:35 Sunny 91 33 63 17 38 38 NW 13 20 29.69 1006 10 16.0934 0 0
4:55 pm 16:55 Sunny 91 33 64 18 41 41 WNW 12 19 29.69 1006 10 16.0934 0 0
5:15 pm 17:15 Sunny 91 33 64 18 41 41 NW 14 22 29.69 1006 10 16.0934 0 0
5:35 pm 17:35 Partly Cloudy 91 33 64 18 41 41 NW 15 24 29.69 1006 10 16.0934 0 0
5:55 pm 17:55 Sunny 91 33 63 17 38 38 WNW 16 26 29.68 1005 10 16.0934 0 0
6:15 pm 18:15 Sunny 91 33 64 18 41 41 NW 13 20 29.68 1005 10 16.0934 0 0
6:35 pm 18:35 Sunny 90 32 64 18 43 43 WNW 14 22 29.7 1006 10 16.0934 0 0
6:55 pm 18:55 Sunny 88 31 64 18 46 46 WNW 10 17 29.71 1006 10 16.0934 0 0
7:15 pm 19:15 Sunny 88 31 64 18 46 46 W 7 11 29.71 1006 10 16.0934 0 0
7:35 pm 19:35 Sunny 86 30 63 17 46 46 W 9 15 29.72 1006 10 16.0934 0 0
7:55 pm 19:55 Sunny 86 30 63 17 46 46 W 9 15 29.73 1007 10 16.0934 0 0
8:15 pm 20:15 Sunny 86 30 63 17 46 46 W 7 11 29.72 1006 10 16.0934 0 0
8:35 pm 20:35 Clear 82 28 63 17 51 51 WNW 9 15 29.73 1007 10 16.0934 0 0
8:55 pm 20:55 Clear 82 28 63 17 51 51 WNW 8 13 29.73 1007 10 16.0934 0 0
9:15 pm 21:15 Clear 82 28 63 17 51 51 NW 7 11 29.73 1007 10 16.0934 0 0
9:35 pm 21:35 Clear 81 27 63 17 54 54 WNW 6 9 29.74 1007 10 16.0934 0 0
9:55 pm 21:55 Clear 81 27 64 18 58 58 WNW 7 11 29.75 1008 10 16.0934 0 0
10:15 pm 22:15 Clear 81 27 64 18 58 58 WNW 9 15 29.76 1008 10 16.0934 0 0
10:35 pm 22:35 Clear 81 27 64 18 58 58 W 8 13 29.77 1008 10 16.0934 0 0
10:55 pm 22:55 Clear 81 27 63 17 54 54 W 8 13 29.78 1009 10 16.0934 0 0
11:15 pm 23:15 Clear 81 27 63 17 54 54 W 7 11 29.79 1009 10 16.0934 0 0
11:35 pm 23:35 Clear 81 27 63 17 54 54 WNW 7 11 29.8 1009 10 16.0934 0 0
11:55 pm 23:55 Clear 79 26 63 17 58 58 W 6 9 29.8 1009 10 16.0934 0 0

Powered by AerisWeather